[[{"header":{"parameterUnit":"m.s-1","parameterCategory":1,"la1":30.2991,"la2":30.254,"lo1":-89.0895,"lo2":-89.0444,"dy":0.0017,"dx":0.0017,"nx":28,"ny":28,"refTime":"2024-07-12T09:00:00:Z","depth":0,"parameterNumber":2,"parameterNumberName":"U-component_of_WINDS"},"data":[0,0,0,0,0,0,0,0,0,0,0,0,0,0,0,0,0,0,0,0,0,0,0,0,0,0,0,0,0,0,0,0,0,0,0,0,0,0,0,0,0,0,0,0,0,0,0,0,0,0,0,0,0,0,0,0,0,0,1.4102,1.4103,0,1.4272,1.4274,1.4276,1.4323,1.4322,1.4321,1.432,1.4494,1.4499,1.4505,0,0,0,0,0,0,0,0,0,0,0,0,0,1.3816,1.3821,1.4101,1.4104,1.4106,1.4271,1.4274,1.4276,1.4323,1.4322,1.4321,1.432,1.4492,1.4499,1.4505,0,0,0,0,0,0,0,0,0,0,0,0,0,1.3958,1.3823,1.4101,1.4149,1.4155,1.4271,1.4274,1.4277,1.4323,1.4322,1.432,1.4319,1.449,1.4498,1.4506,1.4586,0,0,1.4531,1.4535,0,0,0,0,0,0,0,0,1.395,1.3969,1.414,1.4146,1.4153,1.4275,1.4237,1.438,1.4324,1.4259,1.432,1.4318,1.4422,1.4436,1.4471,1.4594,1.4602,1.4532,1.4537,1.4541,1.4543,0,0,0,0,0,0,0,1.394,1.3962,1.4169,1.4142,1.415,1.4162,1.418,1.4264,1.4347,1.4265,1.4269,1.4288,1.4425,1.4463,1.4475,1.4604,1.4532,1.4539,1.4544,1.4548,1.4801,1.4802,0,0,0,0,0,0,1.3922,1.3953,1.4163,1.4174,1.4046,1.4168,1.4189,1.4237,1.4346,1.4361,1.4289,1.429,1.4449,1.4466,1.4482,1.4582,1.4541,1.4548,1.4553,1.4799,1.4801,1.4803,0,0,0,0,0,0,1.3916,1.3941,1.4157,1.4065,1.4093,1.4175,1.4228,1.4241,1.4279,1.4364,1.4379,1.4313,1.4449,1.447,1.456,1.4589,1.4552,1.456,1.4797,1.48,1.4802,1.4783,0,0,0,0,0,0,1.3908,1.3938,1.397,1.4065,1.4098,1.4232,1.423,1.4246,1.4293,1.4295,1.439,1.4404,1.4449,1.4547,1.4568,1.4599,1.4566,1.4795,1.4798,1.4801,1.4781,1.4785,1.4788,0,0,0,0,0,1.3897,1.3958,1.3971,1.3996,1.4139,1.4234,1.4252,1.4303,1.4295,1.4327,1.4382,1.4401,1.4582,1.4556,1.458,1.4614,1.4793,1.4797,1.4801,1.478,1.4784,1.4787,0,0,0,0,0,0,1.3863,1.3971,1.3987,1.408,1.4147,1.4241,1.4283,1.4305,1.4376,1.4375,1.4435,1.4456,1.4541,1.4587,1.4555,1.4697,1.4688,1.4697,1.4664,1.4668,1.4671,1.4658,1.4573,0,0,0,0,0,1.3867,1.3935,1.4025,1.4098,1.4131,1.4201,1.4244,1.4278,1.4349,1.4378,1.444,1.4508,1.4581,1.4627,1.4698,1.4788,1.4809,1.4824,1.4827,1.4829,1.4836,1.4886,1.4893,1.4816,1.4816,1.4816,0,0,1.3874,1.3941,1.3981,1.4093,1.4149,1.4218,1.4225,1.4298,1.4349,1.4389,1.4477,1.4525,1.4606,1.4695,1.4738,1.4736,1.4862,1.4834,1.4835,1.4841,1.4891,1.4898,1.4904,1.4819,1.4818,1.4818,0,0,1.3923,1.3981,1.4048,1.4104,1.4189,1.4235,1.4251,1.4342,1.4375,1.4464,1.4496,1.4557,1.4681,1.4737,1.4781,1.485,1.4871,1.4872,1.4888,1.4936,1.4942,1.4948,1.4972,1.498,1.4879,1.4879,1.4879,0,1.3922,1.4027,1.408,1.4151,1.4199,1.4238,1.4307,1.4358,1.4461,1.4494,1.449,1.4645,1.4702,1.4805,1.4822,1.4857,1.4877,1.4862,1.4937,1.4943,1.4949,1.4973,1.4982,1.4878,1.4878,1.4878,1.4878,0,1.4021,1.4093,1.4137,1.4236,1.4289,1.4358,1.4421,1.4469,1.4497,1.4543,1.4633,1.4703,1.4789,1.4816,1.4844,1.4923,1.4919,1.4925,1.4918,1.4955,1.4979,1.4988,1.4878,1.4878,1.4878,1.4878,0,0,1.4053,1.418,1.4195,1.424,1.4336,1.4393,1.4464,1.4548,1.4587,1.4657,1.4717,1.482,1.4826,1.4877,1.4912,1.4954,1.5004,1.4956,1.4958,1.4962,1.5094,1.5088,1.5098,1.5018,1.502,1.5021,1.5087,0,1.4114,1.4242,1.4291,1.4395,1.4462,1.45,1.4562,1.4627,1.4672,1.4735,1.4785,1.4857,1.486,1.489,1.4934,1.4988,1.5031,1.4984,1.5074,1.5076,1.5052,1.511,1.5105,1.5164,1.5097,1.5098,1.5099,0,1.4201,1.4272,1.4383,1.447,1.45,1.4554,1.4635,1.4695,1.4769,1.4799,1.4855,1.4887,1.4962,1.495,1.5053,1.502,1.506,1.5092,1.5095,1.5106,1.509,1.5122,1.5184,1.5193,1.5114,1.5113,1.5112,0,1.4213,1.4336,1.4418,1.4455,1.4559,1.4597,1.4642,1.4715,1.4762,1.4832,1.4863,1.4941,1.4984,1.5043,1.5095,1.5081,1.5194,1.5186,1.522,1.5219,1.5242,1.524,1.5311,1.5268,1.5268,1.5267,1.5267,0,1.4275,1.4341,1.4425,1.4475,1.455,1.4606,1.4678,1.4726,1.479,1.485,1.4888,1.4943,1.5009,1.5073,1.5114,1.5193,1.5212,1.5238,1.5248,1.5235,1.5231,1.5261,1.5258,1.527,1.5269,1.5269,1.5268,0,1.4301,1.4359,1.4451,1.4542,1.4566,1.4618,1.4695,1.4745,1.4792,1.4867,1.4888,1.4961,1.5038,1.5096,1.5195,1.5223,1.5307,1.5318,1.5282,1.5287,1.5318,1.5314,1.5411,1.5426,1.5372,1.5373,1.5373,0,1.4336,1.4388,1.4485,1.4528,1.4572,1.4641,1.4689,1.4746,1.4795,1.4883,1.4922,1.5002,1.5068,1.5189,1.5251,1.5327,1.534,1.5368,1.5351,1.5336,1.534,1.5336,1.5341,1.537,1.5371,1.5371,1.5371,0,1.4393,1.442,1.4488,1.4566,1.4623,1.4687,1.4752,1.4785,1.4853,1.4906,1.4985,1.5036,1.5138,1.5216,1.5299,1.5345,1.5369,1.5376,1.5388,1.5375,1.5351,1.5364,1.5288,1.5374,1.5373,1.5373,1.5373,1.5373,1.4425,1.4472,1.4548,1.4622,1.4677,1.4737,1.4788,1.4841,1.4908,1.4995,1.5025,1.5106,1.5179,1.5292,1.5339,1.5403,1.5403,1.5421,1.5425,1.5428,1.5427,1.5341,1.5418,1.5418,1.5418,1.5418,1.5418,0,1.4483,1.4533,1.4601,1.4691,1.475,1.4768,1.4841,1.4888,1.496,1.5026,1.509,1.5181,1.5257,1.5324,1.5403,1.5441,1.5454,1.546,1.5458,1.5468,1.5422,1.5404,1.5448,1.5448,1.5448,1.5448,1.5448,1.5448,1.452,1.4602,1.4637,1.4745,1.4795,1.4876,1.4915,1.497,1.5023,1.5123,1.5186,1.523,1.5296,1.538,1.545,1.5468,1.5495,1.5498,1.5518,1.5475,1.5471,1.5467,1.545,1.5503,1.5503,1.5558,1.5559,1.5559]},{"header":{"parameterUnit":"m.s-1","parameterCategory":1,"la1":30.2991,"la2":30.254,"lo1":-89.0895,"lo2":-89.0444,"dy":0.0017,"dx":0.0017,"nx":28,"ny":28,"refTime":"2024-07-12T09:00:00:Z","depth":0,"parameterNumber":3,"parameterNumberName":"V-component_of_WINDS"},"data":[0,0,0,0,0,0,0,0,0,0,0,0,0,0,0,0,0,0,0,0,0,0,0,0,0,0,0,0,0,0,0,0,0,0,0,0,0,0,0,0,0,0,0,0,0,0,0,0,0,0,0,0,0,0,0,0,0,0,4.5326,4.5326,0,4.5311,4.531,4.531,4.5224,4.5222,4.522,4.5218,4.5202,4.5204,4.5205,0,0,0,0,0,0,0,0,0,0,0,0,0,4.5281,4.5282,4.5326,4.5326,4.5326,4.5311,4.531,4.531,4.5224,4.5222,4.5219,4.5217,4.5202,4.5204,4.5206,0,0,0,0,0,0,0,0,0,0,0,0,0,4.5287,4.5283,4.5326,4.5281,4.5277,4.5311,4.531,4.531,4.5225,4.5222,4.5219,4.5216,4.5201,4.5204,4.5206,4.5282,0,0,4.5213,4.5214,0,0,0,0,0,0,0,0,4.5286,4.5288,4.5288,4.5284,4.528,4.5266,4.5289,4.5301,4.5226,4.5245,4.5218,4.5214,4.5226,4.5226,4.523,4.5281,4.528,4.5213,4.5214,4.5215,4.5216,0,0,0,0,0,0,0,4.5286,4.5288,4.532,4.5288,4.5283,4.5261,4.5259,4.5291,4.5253,4.5243,4.5236,4.5236,4.5223,4.5228,4.5229,4.528,4.5213,4.5215,4.5216,4.5217,4.5391,4.5394,0,0,0,0,0,0,4.5292,4.5289,4.532,4.5319,4.5275,4.5265,4.5262,4.5274,4.5252,4.5246,4.5238,4.5232,4.5226,4.5227,4.5228,4.5314,4.5215,4.5217,4.5219,4.5388,4.5392,4.5395,0,0,0,0,0,0,4.5291,4.5296,4.5321,4.5302,4.5304,4.5269,4.5283,4.5275,4.5279,4.5249,4.5242,4.525,4.5223,4.5225,4.5269,4.5313,4.5218,4.522,4.5384,4.5389,4.5393,4.5488,0,0,0,0,0,0,4.529,4.5296,4.5325,4.5304,4.5305,4.5362,4.5285,4.5277,4.5284,4.5275,4.5258,4.5253,4.5221,4.5266,4.5271,4.5314,4.5222,4.538,4.5386,4.5392,4.5481,4.5496,4.5508,0,0,0,0,0,4.5289,4.5352,4.5327,4.5331,4.534,4.5365,4.5366,4.5328,4.5288,4.5316,4.5296,4.5253,4.5307,4.5271,4.5276,4.5321,4.5377,4.5384,4.5391,4.5475,4.5493,4.5508,0,0,0,0,0,0,4.538,4.5349,4.532,4.5378,4.5375,4.535,4.5385,4.5349,4.5357,4.5348,4.5301,4.5298,4.5348,4.5339,4.5299,4.5392,4.5335,4.5343,4.5396,4.5413,4.5427,4.5427,4.5224,0,0,0,0,0,4.5407,4.5429,4.5401,4.5455,4.5455,4.5421,4.543,4.5401,4.5395,4.5394,4.5377,4.5374,4.5389,4.5401,4.5414,4.548,4.5474,4.5513,4.5526,4.5538,4.5545,4.5578,4.5595,4.5419,4.5419,4.5419,0,0,4.5462,4.5448,4.5465,4.5473,4.5467,4.5491,4.542,4.5448,4.5465,4.5398,4.5437,4.5426,4.5418,4.5473,4.5496,4.5467,4.5593,4.5547,4.5556,4.5558,4.5587,4.5604,4.5619,4.5424,4.5423,4.5422,0,0,4.5575,4.5568,4.5611,4.5606,4.5598,4.5574,4.5585,4.5566,4.5555,4.5594,4.5543,4.5563,4.5592,4.5589,4.5591,4.5702,4.5662,4.5708,4.5779,4.5811,4.5825,4.5837,4.5875,4.589,4.5716,4.5716,4.5716,0,4.5645,4.5679,4.5638,4.5669,4.5674,4.5614,4.5657,4.5654,4.5651,4.5655,4.5622,4.5656,4.5647,4.57,4.5727,4.5731,4.5741,4.5709,4.5826,4.5838,4.5848,4.5885,4.5899,4.5721,4.5721,4.572,4.572,0,4.5765,4.579,4.5826,4.5823,4.5832,4.5869,4.5833,4.5847,4.5817,4.5797,4.5838,4.5825,4.5833,4.5844,4.5816,4.5892,4.5874,4.5835,4.5776,4.5871,4.5904,4.5918,4.5729,4.5727,4.5726,4.5724,0,0,4.5935,4.5908,4.5922,4.5919,4.5905,4.5923,4.5958,4.5966,4.5978,4.5978,4.6005,4.6031,4.5994,4.5996,4.5967,4.5996,4.6083,4.5952,4.5951,4.5976,4.6165,4.6194,4.6211,4.6057,4.606,4.6062,4.6165,0,4.6042,4.6098,4.6062,4.6124,4.6146,4.6088,4.6118,4.6113,4.6095,4.6111,4.6091,4.6109,4.606,4.6061,4.6087,4.6067,4.612,4.6059,4.6081,4.6083,4.6084,4.6229,4.6259,4.6358,4.6178,4.618,4.6182,0,4.6174,4.6178,4.6243,4.6224,4.6231,4.6259,4.6263,4.6279,4.6271,4.6256,4.6259,4.6222,4.6254,4.6197,4.624,4.6199,4.6206,4.6198,4.6201,4.6201,4.6138,4.6231,4.6389,4.6403,4.6202,4.6201,4.6199,0,4.6289,4.6312,4.6353,4.6353,4.6332,4.6352,4.6344,4.6333,4.6341,4.6344,4.6348,4.6356,4.636,4.6367,4.6334,4.6295,4.6381,4.6321,4.6369,4.637,4.6389,4.6388,4.6549,4.6396,4.6395,4.6395,4.6395,0,4.6412,4.6453,4.6404,4.6429,4.6474,4.6431,4.6477,4.6463,4.6454,4.6475,4.6427,4.6448,4.6403,4.6419,4.6393,4.6433,4.6435,4.6424,4.6416,4.6427,4.6429,4.6431,4.6423,4.6399,4.6398,4.6397,4.6397,0,4.6548,4.6517,4.6557,4.6534,4.6529,4.6563,4.6542,4.6564,4.6543,4.6571,4.6575,4.6542,4.6559,4.6526,4.6539,4.6522,4.6577,4.6559,4.6579,4.6573,4.6623,4.6618,4.6789,4.6809,4.6645,4.6646,4.6648,0,4.6627,4.6658,4.6637,4.6648,4.6642,4.666,4.6667,4.6626,4.6635,4.6629,4.6652,4.6664,4.6672,4.6702,4.6679,4.6689,4.667,4.673,4.6671,4.6682,4.667,4.6668,4.6671,4.6741,4.6743,4.6745,4.6746,0,4.6772,4.6754,4.6766,4.6772,4.6781,4.6784,4.6783,4.6795,4.6752,4.6764,4.678,4.6787,4.6799,4.6812,4.6816,4.6808,4.677,4.6765,4.6776,4.6788,4.6798,4.6792,4.6611,4.6761,4.676,4.6758,4.6758,4.6757,4.6881,4.6904,4.6893,4.6907,4.6903,4.6903,4.6922,4.6904,4.6916,4.6923,4.6899,4.6921,4.6912,4.6913,4.6909,4.6925,4.6899,4.6916,4.692,4.6924,4.6932,4.6796,4.6926,4.6926,4.6925,4.6925,4.6925,0,4.7021,4.7011,4.7024,4.7025,4.7036,4.6999,4.6996,4.7008,4.7027,4.7022,4.7031,4.705,4.7062,4.704,4.7049,4.7067,4.705,4.707,4.7068,4.7067,4.6956,4.6944,4.7084,4.7084,4.7084,4.7084,4.7084,4.7084,4.7096,4.7133,4.7115,4.715,4.714,4.716,4.7162,4.7162,4.7157,4.718,4.719,4.7176,4.7164,4.7172,4.7181,4.7175,4.718,4.7207,4.7194,4.709,4.7075,4.706,4.7049,4.7208,4.7209,4.7304,4.7305,4.7305]}]]